Weather History for Fort Drum, NY

Change the Weather History Date:

Thursday, March 29, 2012

  Actual Average Record
Temperature  
Mean Temperature 38 °F -  
Max Temperature 40 °F 40 °F 64 °F (2004)
Min Temperature 32 °F 26 °F 14 °F (2008)
Degree Days  
Heating Degree Days 28    
Moisture  
Dew Point 35 °F    
Average Humidity 91    
Maximum Humidity 100    
Minimum Humidity 56    
Precipitation  
Precipitation 0.18 in - - ()
Sea Level Pressure  
Sea Level Pressure 29.84 in    
Wind  
Wind Speed 8 mph (NNW)    
Max Wind Speed 16 mph    
Max Gust Speed 20 mph    
Visibility 10 miles    
Events Rain    
Averages and records for this station are not official NWS values.
T = Trace of Precipitation, MM = Missing Value Source: NWS Daily Summary

Daily Weather History Graph

Daily Weather History Graph

Search for Another Location

Airport:

Trip Planner

Search our weather history database for the weather conditions in past years. The results will help you decide how hot, cold, wet, or windy it might be!

Date:

Astronomy

Mar. 29, 2012 Rise Set
Actual Time 6:48 AM EDT 7:26 PM EDT
Civil Twilight 6:19 AM EDT 7:56 PM EDT
Nautical Twilight 5:45 AM EDT 8:30 PM EDT
Astronomical Twilight 5:09 AM EDT 9:06 PM EDT
Moon 10:44 AM EDT (3/29) 1:26 AM EDT (3/29)
Length of Visible Light 13h 36m
Length of Day
12h 38m
Waxing Crescent, 39% of the Moon is Illuminated
Mar 29
Waxing Crescent
Mar 30
First Quarter
Apr 6
Full
Apr 13
Last Quarter
Apr 21
New

Hourly Weather History & Observations

Time (EDT) Temp. Windchill Dew Point Humidity Pressure Visibility Wind Dir Wind Speed Gust Speed Precip Events Conditions
12:02 AM 42.8 °F 41.1 °F 42.8 °F 100% 29.67 in 6.0 mi Variable 3.5 mph - N/A Rain Light Rain
12:03 AM 42.8 °F 40.1 °F 42.8 °F 100% 29.67 in 6.0 mi Variable 4.6 mph - N/A Rain Light Rain
12:15 AM 41.0 °F 39.0 °F 41.0 °F 100% 29.68 in 7.0 mi North 3.5 mph - N/A Rain Light Rain
12:17 AM 41.0 °F - 41.0 °F 100% 29.68 in 7.0 mi Calm Calm - N/A Rain Light Rain
12:18 AM 41.0 °F 39.0 °F 41.0 °F 100% 29.68 in 7.0 mi North 3.5 mph - N/A Rain Light Rain
12:20 AM 41.0 °F 38.0 °F 41.0 °F 100% 29.68 in 7.0 mi North 4.6 mph - N/A Rain Light Rain
12:22 AM 41.0 °F 38.0 °F 41.0 °F 100% 29.68 in 7.0 mi Variable 4.6 mph - N/A Rain Light Rain
12:24 AM 41.0 °F 39.0 °F 41.0 °F 100% 29.68 in 7.0 mi Variable 3.5 mph - N/A Rain Light Rain
12:30 AM 41.0 °F 36.4 °F 41.0 °F 100% 29.68 in 7.0 mi North 6.9 mph - N/A Rain Light Rain
12:31 AM 41.0 °F 37.1 °F 41.0 °F 100% 29.68 in 7.0 mi North 5.8 mph - N/A Rain Light Rain
12:33 AM 41.0 °F 38.0 °F 41.0 °F 100% 29.68 in 7.0 mi North 4.6 mph - N/A Rain Light Rain
12:36 AM 41.0 °F 35.8 °F 41.0 °F 100% 29.68 in 8.0 mi North 8.1 mph - N/A Rain Light Rain
12:37 AM 41.0 °F 36.4 °F 41.0 °F 100% 29.68 in 8.0 mi North 6.9 mph - N/A Rain Light Rain
12:45 AM 41.0 °F 36.4 °F 41.0 °F 100% 29.68 in 10.0 mi North 6.9 mph - N/A Rain Light Rain
12:49 AM 41.0 °F 36.4 °F 41.0 °F 100% 29.68 in 10.0 mi North 6.9 mph - N/A Rain Light Rain
12:55 AM 40.6 °F 34.8 °F 40.6 °F 100% 29.69 in 10.0 mi North 9.2 mph - 0.04 in Rain Light Rain
1:00 AM 41.0 °F 34.7 °F 41.0 °F 100% 29.69 in 10.0 mi North 10.4 mph - N/A Rain Light Rain
1:17 AM 39.2 °F 31.6 °F 39.2 °F 100% 29.69 in 9.0 mi NNE 12.7 mph - N/A Rain Light Rain
1:30 AM 39.2 °F 32.5 °F 39.2 °F 100% 29.70 in 10.0 mi North 10.4 mph - N/A Rain Light Rain
1:35 AM 39.2 °F 33.6 °F 39.2 °F 100% 29.70 in 10.0 mi North 8.1 mph - N/A Rain Light Rain
1:39 AM 39.2 °F 33.6 °F 39.2 °F 100% 29.70 in 10.0 mi North 8.1 mph - N/A Rain Light Rain
1:46 AM 39.2 °F 31.2 °F 39.2 °F 100% 29.70 in 10.0 mi North 13.8 mph - N/A Rain Light Rain
1:55 AM 38.8 °F 32.1 °F 38.7 °F 99% 29.70 in 10.0 mi North 10.4 mph - 0.03 in Rain Light Rain
1:57 AM 39.2 °F 33.0 °F 39.2 °F 100% 29.70 in 10.0 mi North 9.2 mph - N/A Rain Light Rain
1:59 AM 39.2 °F 33.6 °F 39.2 °F 100% 29.70 in 10.0 mi North 8.1 mph - N/A Rain Light Rain
2:37 AM 39.2 °F 33.6 °F 39.2 °F 100% 29.71 in 10.0 mi North 8.1 mph - N/A Rain Light Rain
2:47 AM 39.2 °F 33.0 °F 39.2 °F 100% 29.71 in 10.0 mi North 9.2 mph - N/A Rain Light Rain
2:53 AM 39.2 °F 34.2 °F 39.2 °F 100% 29.71 in 10.0 mi North 6.9 mph - N/A Rain Light Rain
2:55 AM 38.5 °F 32.7 °F 38.3 °F 99% 29.71 in 10.0 mi North 8.1 mph - 0.02 in Rain Light Rain
3:16 AM 37.4 °F 30.3 °F 37.4 °F 100% 29.72 in 10.0 mi North 10.4 mph - N/A Rain Light Rain
3:50 AM 37.4 °F 31.4 °F 37.4 °F 100% 29.73 in 10.0 mi North 8.1 mph - N/A Rain Light Rain
3:55 AM 37.4 °F 30.8 °F 37.2 °F 99% 29.73 in 10.0 mi North 9.2 mph - 0.02 in Rain Light Rain
3:58 AM 37.4 °F 30.8 °F 37.4 °F 100% 29.73 in 10.0 mi North 9.2 mph - N/A Rain Light Rain
4:17 AM 37.4 °F 29.8 °F 37.4 °F 100% 29.74 in 10.0 mi North 11.5 mph - N/A Rain Light Rain
4:22 AM 37.4 °F 29.8 °F 37.4 °F 100% 29.74 in 10.0 mi North 11.5 mph - N/A Rain Light Rain
4:27 AM 37.4 °F 30.3 °F 37.4 °F 100% 29.74 in 10.0 mi North 10.4 mph - N/A Rain Light Rain
4:41 AM 37.4 °F 30.8 °F 37.4 °F 100% 29.75 in 10.0 mi North 9.2 mph - N/A Rain Light Rain
4:55 AM 36.7 °F 29.9 °F 36.7 °F 100% 29.75 in 10.0 mi North 9.2 mph - 0.03 in Rain Light Rain
5:14 AM 35.6 °F 29.9 °F 35.6 °F 100% 29.76 in 10.0 mi North 6.9 mph - N/A Rain Light Rain
5:17 AM 35.6 °F 28.6 °F 35.6 °F 100% 29.76 in 10.0 mi North 9.2 mph - N/A Rain Light Rain
5:19 AM 35.6 °F 28.6 °F 35.6 °F 100% 29.77 in 10.0 mi North 9.2 mph - N/A Rain Light Rain
5:24 AM 35.6 °F 28.0 °F 35.6 °F 100% 29.77 in 10.0 mi North 10.4 mph - N/A Rain Light Rain
5:36 AM 35.6 °F 28.0 °F 35.6 °F 100% 29.78 in 10.0 mi North 10.4 mph 16.1 mph N/A Rain Light Rain
5:47 AM 35.6 °F 27.5 °F 35.6 °F 100% 29.78 in 10.0 mi North 11.5 mph - N/A Rain Light Rain
5:55 AM 35.8 °F 27.8 °F 35.8 °F 100% 29.79 in 10.0 mi North 11.5 mph 19.6 mph 0.02 in Rain Light Rain
5:58 AM 35.6 °F 28.0 °F 35.6 °F 100% 29.79 in 10.0 mi North 10.4 mph 19.6 mph N/A Rain Light Rain
6:02 AM 35.6 °F 28.0 °F 35.6 °F 100% 29.79 in 10.0 mi North 10.4 mph 19.6 mph N/A Rain Light Rain
6:19 AM 35.6 °F 29.2 °F 35.6 °F 100% 29.80 in 10.0 mi North 8.1 mph - N/A   Light Drizzle
6:25 AM 35.6 °F 30.7 °F 35.6 °F 100% 29.81 in 10.0 mi NNW 5.8 mph - N/A   Light Drizzle
6:32 AM 35.6 °F 30.7 °F 35.6 °F 100% 29.81 in 10.0 mi NNW 5.8 mph - N/A   Light Drizzle
6:34 AM 35.6 °F 30.7 °F 35.6 °F 100% 29.81 in 10.0 mi NNW 5.8 mph - N/A   Light Drizzle
6:49 AM 35.6 °F 30.7 °F 35.6 °F 100% 29.82 in 10.0 mi NNW 5.8 mph - N/A   Light Drizzle
6:55 AM 35.6 °F 29.9 °F 35.6 °F 100% 29.82 in 10.0 mi NNW 6.9 mph - 0.01 in   Light Drizzle
7:07 AM 35.6 °F 29.2 °F 35.6 °F 100% 29.83 in 10.0 mi NNW 8.1 mph - N/A   Drizzle
7:27 AM 35.6 °F 27.1 °F 35.6 °F 100% 29.84 in 10.0 mi NNW 12.7 mph - N/A Rain Light Rain
7:39 AM 35.6 °F 27.1 °F 35.6 °F 100% 29.85 in 10.0 mi NNW 12.7 mph - N/A Rain Light Rain
7:50 AM 35.6 °F 28.0 °F 35.6 °F 100% 29.85 in 10.0 mi NNW 10.4 mph - N/A   Overcast
7:53 AM 35.6 °F 28.6 °F 35.6 °F 100% 29.85 in 10.0 mi NNW 9.2 mph - N/A   Overcast
7:55 AM 35.1 °F 27.9 °F 35.1 °F 100% 29.85 in 10.0 mi NNW 9.2 mph - 0.00 in   Overcast
8:18 AM 35.6 °F 30.7 °F 35.6 °F 100% 29.86 in 10.0 mi NNW 5.8 mph - N/A   Overcast
8:30 AM 35.6 °F 27.5 °F 35.6 °F 100% 29.86 in 10.0 mi North 11.5 mph - N/A   Overcast
8:39 AM 35.6 °F 29.9 °F 35.6 °F 100% 29.86 in 10.0 mi NNW 6.9 mph - N/A   Overcast
8:55 AM 35.2 °F 27.6 °F 35.1 °F 99% 29.87 in 10.0 mi NNW 10.4 mph - N/A   Overcast
9:05 AM 35.6 °F 28.6 °F 35.6 °F 100% 29.88 in 10.0 mi NNW 9.2 mph - N/A   Overcast
9:08 AM 35.6 °F 28.0 °F 35.6 °F 100% 29.88 in 10.0 mi NNW 10.4 mph - N/A   Overcast
9:39 AM 35.6 °F 27.5 °F 35.6 °F 100% 29.89 in 10.0 mi North 11.5 mph - N/A   Overcast
9:46 AM 35.6 °F 27.1 °F 35.6 °F 100% 29.89 in 10.0 mi NNW 12.7 mph - N/A   Overcast
9:54 AM 35.6 °F 27.1 °F 33.8 °F 93% 29.89 in 10.0 mi NNW 12.7 mph - N/A   Overcast
9:55 AM 36.0 °F 26.7 °F 34.5 °F 94% 29.89 in 10.0 mi NNW 15.0 mph - N/A   Overcast
9:56 AM 35.6 °F 26.6 °F 33.8 °F 93% 29.90 in 10.0 mi NNW 13.8 mph - N/A   Overcast
10:14 AM 35.6 °F 27.5 °F 33.8 °F 93% 29.91 in 10.0 mi NNW 11.5 mph - N/A   Overcast
10:55 AM 36.9 °F 29.6 °F 32.2 °F 83% 29.92 in 10.0 mi North 10.4 mph 19.6 mph N/A   Overcast
11:18 AM 37.4 °F 30.8 °F 32.0 °F 81% 29.93 in 10.0 mi North 9.2 mph - N/A   Light Drizzle
11:26 AM 35.6 °F 28.0 °F 32.0 °F 87% 29.93 in 10.0 mi NNW 10.4 mph - N/A   Overcast
11:35 AM 35.6 °F 28.0 °F 33.8 °F 93% 29.94 in 10.0 mi NNW 10.4 mph - N/A   Overcast
11:44 AM 37.4 °F 29.3 °F 33.8 °F 87% 29.94 in 10.0 mi NNW 12.7 mph - N/A   Light Drizzle
11:55 AM 36.1 °F 28.7 °F 32.7 °F 87% 29.94 in 10.0 mi NNW 10.4 mph 19.6 mph 0.00 in   Overcast
11:56 AM 35.6 °F 28.0 °F 32.0 °F 87% 29.94 in 10.0 mi NNW 10.4 mph - N/A   Overcast
12:06 PM 37.4 °F 30.3 °F 33.8 °F 87% 29.94 in 10.0 mi NNW 10.4 mph - N/A   Overcast
12:07 PM 37.4 °F 31.4 °F 33.8 °F 87% 29.94 in 10.0 mi NNW 8.1 mph - N/A   Overcast
12:26 PM 37.4 °F 29.3 °F 32.0 °F 81% 29.95 in 10.0 mi North 12.7 mph - N/A   Overcast
12:28 PM 37.4 °F 29.3 °F 32.0 °F 81% 29.95 in 10.0 mi North 12.7 mph - N/A   Overcast
12:36 PM 37.4 °F 30.8 °F 32.0 °F 81% 29.94 in 10.0 mi NNW 9.2 mph - N/A   Overcast
12:55 PM 37.2 °F 30.0 °F 31.1 °F 79% 29.94 in 10.0 mi NNW 10.4 mph - 0.00 in   Overcast
1:05 PM 37.4 °F 29.3 °F 30.2 °F 75% 29.95 in 10.0 mi NNW 12.7 mph - N/A Rain Light Rain
1:14 PM 37.4 °F 29.8 °F 30.2 °F 75% 29.95 in 10.0 mi NNW 11.5 mph - N/A   Overcast
1:55 PM 38.1 °F 32.3 °F 30.4 °F 74% 29.96 in 10.0 mi North 8.1 mph - 0.00 in   Overcast
2:55 PM 37.9 °F 30.5 °F 29.5 °F 72% 29.97 in 10.0 mi NNW 11.5 mph 19.6 mph N/A   Overcast
3:06 PM 37.4 °F 31.4 °F 30.2 °F 75% 29.97 in 10.0 mi NW 8.1 mph - N/A   Overcast
3:12 PM 39.2 °F 32.0 °F 30.2 °F 70% 29.97 in 10.0 mi NNW 11.5 mph - N/A   Overcast
3:55 PM 38.1 °F 31.2 °F 28.8 °F 69% 29.98 in 10.0 mi NW 10.4 mph - N/A   Overcast
4:06 PM 37.4 °F 29.3 °F 28.4 °F 70% 29.99 in 10.0 mi NNW 12.7 mph - N/A   Overcast
4:08 PM 37.4 °F 28.2 °F 28.4 °F 70% 29.99 in 10.0 mi NNW 16.1 mph 19.6 mph N/A   Overcast
4:12 PM 37.4 °F 28.9 °F 28.4 °F 70% 29.99 in 10.0 mi NNW 13.8 mph 19.6 mph N/A   Overcast
4:19 PM 37.4 °F 29.8 °F 28.4 °F 70% 29.99 in 10.0 mi NNW 11.5 mph - N/A   Overcast
4:55 PM 37.6 °F 31.0 °F 27.9 °F 68% 29.99 in 10.0 mi NNW 9.2 mph - N/A   Overcast
5:12 PM 37.4 °F 31.4 °F 28.4 °F 70% 29.99 in 10.0 mi NNW 8.1 mph - N/A   Overcast
5:55 PM 37.6 °F 30.0 °F 27.7 °F 67% 30.01 in 10.0 mi NNW 11.5 mph - N/A   Overcast
6:34 PM 37.4 °F 32.1 °F 26.6 °F 65% 30.02 in 10.0 mi NNW 6.9 mph - N/A Rain Light Rain
6:48 PM 37.4 °F 30.8 °F 26.6 °F 65% 30.02 in 10.0 mi NNW 9.2 mph - N/A   Overcast
6:54 PM 37.4 °F 29.8 °F 28.4 °F 70% 30.03 in 10.0 mi NNW 11.5 mph - N/A Rain Light Rain
6:55 PM 37.2 °F 30.0 °F 27.7 °F 68% 30.03 in 10.0 mi NNW 10.4 mph - 0.00 in Rain Light Rain
7:02 PM 37.4 °F 30.3 °F 26.6 °F 65% 30.03 in 10.0 mi North 10.4 mph - N/A   Overcast
7:55 PM 36.0 °F 29.6 °F 24.8 °F 64% 30.03 in 10.0 mi NNW 8.1 mph - 0.01 in   Overcast
8:55 PM 35.4 °F 29.0 °F 21.4 °F 57% 30.05 in 10.0 mi NNW 8.1 mph - N/A   Overcast
9:55 PM 34.5 °F 26.2 °F 20.3 °F 56% 30.07 in 10.0 mi NNW 11.5 mph - N/A   Overcast
10:55 PM 33.6 °F 24.6 °F 20.5 °F 59% 30.08 in 10.0 mi North 12.7 mph - N/A   Overcast
11:55 PM 32.9 °F 25.3 °F 19.6 °F 58% 30.09 in 10.0 mi North 9.2 mph - N/A   Overcast